Preview of NWS' New Version of Forecast
This preview is not operational and should not be used for support decisions.

Regional Weather Roundup (RWR)

Issued by National Weather Service (NWS)

                            
000
ASUS46 KPQR 182110
RWROR 

OREGON REGIONAL WEATHER ROUNDUP
NATIONAL WEATHER SERVICE PORTLAND OR
100 PM PST MON FEB 18 2019

NOTE: "FAIR" INDICATES FEW OR NO CLOUDS BELOW 12,000 FEET WITH
NO SIGNIFICANT WEATHER AND/OR OBSTRUCTIONS TO VISIBILITY.

ORZ001>013-182200-
NORTHWEST OREGON

  
CITY           SKY/WX    TMP DP  RH WIND       PRES   REMARKS
ASTORIA        CLOUDY    42  37  82 N6        30.41F                  
TILLAMOOK      CLOUDY    45  36  70 CALM      30.44F                  
NEWPORT        CLOUDY    43  34  70 SW5       30.46F                  
PORTLAND       CLOUDY    40  34  79 NW8       30.44F                  
VANCOUVER WA   CLOUDY    39  34  82 SW3       30.43F                  
SCAPPOOSE      CLOUDY    38  35  89 CALM      30.44F                  
HILLSBORO      CLOUDY    39  34  82 CALM      30.42F                  
AURORA         PTSUNNY   39  35  86 CALM      30.45F                  
MCMINNVILLE    CLOUDY    36  35  96 CALM      30.43F                  
SALEM          PTSUNNY   42  33  70 CALM      30.43F                  
CORVALLIS      PTSUNNY   39  34  81 VRB3      30.45S                  
EUGENE         MOSUNNY   42  34  73 W3        30.43F                  
$$

ORZ021-028-182200-
SOUTHWEST OREGON

  
CITY           SKY/WX    TMP DP  RH WIND       PRES   REMARKS
NORTH BEND     SUNNY     47  37  68 NW7       30.44F                  
BROOKINGS      SUNNY     49  32  52 W5        30.36F                  
ROSEBURG       CLOUDY    42  29  59 VRB3      30.42F                  
SEXTON SUMMIT  MOSUNNY   29  27  92 CALM      30.26F                  
GRANTS PASS    FAIR      41  27  56 CALM      30.40F                  
MEDFORD        MOSUNNY   40  26  57 VRB3      30.37F                  
$$

ORZ014>016-041-182200-
COLUMBIA GORGE

  
CITY           SKY/WX    TMP DP  RH WIND       PRES   REMARKS
TROUTDALE      CLOUDY    42  34  73 NW8       30.43F                  
HOOD RIVER     SUNNY     41  30  65 CALM      30.37F                  
THE DALLES     MOSUNNY   37  29  72 NE6       30.39F                  
$$

ORZ029>031-041-044-049-050-061>064-502-503-505>511-182200-
EASTERN OREGON

  
CITY           SKY/WX    TMP DP  RH WIND       PRES   REMARKS
MADRAS         NOT AVBL                                               
REDMOND        SUNNY     35  21  56 S3        30.26F                  
BEND           SUNNY     34  18  51 W5        30.25F                  
PRINEVILLE     MOSUNNY   32  21  64 SW10      30.26S WCI  24          
KLAMATH FALLS  SUNNY     33  18  53 NW9       30.22F                  
LAKEVIEW       CLOUDY    31  17  56 N13       30.18F WCI  21          
HERMISTON      CLOUDY    34  21  59 SW3       30.38F                  
PENDLETON      PTSUNNY   31  22  69 NW9       30.33F                  
JOHN DAY       SUNNY     32  17  55 NW10      30.20  WCI  23          
MEACHAM        CLOUDY    23  15  71 VRB3      30.20F                  
LA GRANDE      PTSUNNY   31  19  61 NW13      30.24F WCI  21          
BAKER CITY     SUNNY     32  17  54 N21       30.18F WCI  20          
BURNS          SUNNY     30  14  51 NW14G22   30.16F WCI  19          
ROME             N/A     30  15  53 W14       30.13S WCI  19          
ONTARIO        MOSUNNY   38  18  44 NW15      30.21F WCI  29          
$$